Location: Newark
(43.4306°N, 0.3089°E)
Time: 13:54:04
(UTC+00:00)

Transit 2A Rocket - Pass Details

Date: 02 September 2019
Orbit: 592 x 911 km, 66.7° (Epoch: 19 September)

Event Time Altitude Azimuth Distance (km) Brightness Sun altitude
Rises 00:38:22 0° 334° (NNW) 2,996 8.7 -37.7°
Reaches altitude 10° 00:40:56 10° 344° (NNW) 2,036 7.8 -37.6°
Enters shadow 00:41:37 14° 349° (N) 1,795 7.5 -37.6°
